Location: Unspecified
(42.3650°N, 71.1030°W)
Time: 04:21:03
(UTC+00:00)

Explorer 11/Cluster Stage 4 - Pass Details

Date: 21 June 2024
Orbit: 465 x 1216 km, 28.8° (Epoch: 13 July)

Event Time Altitude Azimuth Distance (km) Brightness Sun altitude
Rises 01:55:47 0° 231° (SW) 4,118 10.3 -13.3°
Reaches altitude 10° 01:59:22 10° 218° (SW) 3,129 9.5 -13.8°
Maximum altitude 02:05:17 24° 169° (S) 2,180 8.3 -14.4°
Enters shadow 02:07:37 20° 144° (SE) 2,294 8.3 -14.7°
Drops below altitude 10° 02:10:45 10° 120° (ESE) 2,868 - -15.1°
Sets 02:13:52 0° 106° (ESE) 3,703 - -15.4°
